Tracking 30994 objects as of 8-Jul-2025
HD Live streaming from Space Station
objects crossing your sky now

DELTA 1 DEB

Track DELTA 1 DEB now!
10-day predictions


NORAD ID: 7133
Int'l Code: 1973-086CX
Perigee: 1,480.2 km
Apogee: 1,535.1 km
Inclination: 101.7 °
Period: 116.0 minutes
Semi major axis: 7878 km
RCS: 0.0439 m2 (small)
Launch date: November 6, 1973
Source: United States (US)
Launch site: AIR FORCE WESTERN TEST RANGE (AFWTR)

Note: This is SATELLITE DEBRIS
Your satellite tracking list
Your tracking list is empty




NASA's NSSDC Master Catalog

Two Line Element Set (TLE):
1 07133U 73086CX  25187.65728427 -.00000039  00000-0  33820-4 0  9995
2 07133 101.7082 229.8124 0034842 252.8299 231.9844 12.41449630337469
Source of the keplerian elements: AFSPC